Погода в Сан-Антонио-Абаде

Испания     38°58′59″N   1°18′16″E
темп.,
°C
ветер,
м/с
пор.,
м/с
влажн.,
%
обл.,
%
осадки,
мм/ч
давл.,
гПа
погр.,
м
19 января, ср
ср1901:00+10вюв22670 0.0 1032223
04:00+9всв22690 0.0 1031165
07:00+9всв22700 0.0 1031156
10:00+11в11650 0.0 1031154
13:00+13ссз11550 0.0 1031548
16:00+13ссз11560 0.0 1029520
19:00+11св22660 0.0 1029323
22:00+10в22693 0.0 1030188
20 января, чт
чт2001:00+9св11704 0.0 1029130
04:00+9св127073 0.0 1028165
07:00+10ссв2369100 0.0 1028465
10:00+11ссв22668 0.0 1028554
13:00+12ссз55610 0.0 1028870
16:00+12ссз55660 0.0 1025901
19:00+10ссв45775 0.0 1025525
22:00+10с22763 0.0 1025379
21 января, пт
пт2101:00+10ссв23734 0.0 1024409
04:00+10ссв23685 0.0 1023465
07:00+10ссз336940 0.0 1022664
10:00+12сз456713 0.1 1023977
13:00+13с456682 0.3 10231040
16:00+11ссв777184 0.2 1024782
19:00+10ссв56765 0.2 1025429
22:00+9в678355 0.1 1027404
22 января, сб
сб2201:00+10в787398 0.1 1028649
04:00+10вюв6767100 0.0 1028603
07:00+10в4566100 0.0 1028529
10:00+11вюв4461100 0.0 1030584
13:00+12вюв3252100 0.0 10301174
16:00+12ююв325452 0.0 10291118
19:00+10ю336166 0.0 1029575
22:00+11ю3359100 0.0 1030447
23 января, вс
вс2301:00+11ю335774 0.0 1028587
04:00+11ююз236078 0.0 1027635
07:00+12юз2359100 0.0 1026707
10:00+12ююз3364100 0.1 1027465
13:00+12зюз336291 0.1 1027798
16:00+12з3367100 0.1 1026737
19:00+11сз227432 0.2 1026434
22:00+12ссз227043 0.0 1027458